• In Hungary
  • List of Countries
  • For 7 days
  • Water Temperature
  • Satellite Maps
  • Weather Map
  • News
  • Weather Widgets
  • user-avatar
    Login

    Hourly Weather Santa Cruz de Barahona

    Today, 17 December, Sunday

    Time Temperature Precipitation Wind Pressure Humidity
    00:00 +23°C° 0 mm 5 mps 760 mmHg 88%
    01:00 +23°C° 0 mm 4 mps 760 mmHg 88%
    02:00 +23°C° 0 mm 5 mps 760 mmHg 87%
    03:00 +23°C° 0 mm 5 mps 760 mmHg 86%
    04:00 +23°C° 0 mm 5 mps 760 mmHg 85%
    05:00 +23°C° 0.1 mm 5 mps 760 mmHg 85%
    06:00 +23°C° 0.1 mm 5 mps 760 mmHg 84%
    07:00 +23°C° 0.1 mm 5 mps 761 mmHg 83%
    08:00 +26°C° 0.1 mm 5 mps 761 mmHg 78%
    09:00 +28°C° 0.1 mm 5 mps 761 mmHg 72%
    10:00 +29°C° 0.1 mm 6 mps 761 mmHg 67%
    11:00 +30°C° 0.1 mm 6 mps 761 mmHg 64%
    12:00 +32°C° 0.1 mm 6 mps 761 mmHg 60%
    13:00 +32°C° 0.1 mm 6 mps 760 mmHg 57%
    14:00 +32°C° 0 mm 6 mps 760 mmHg 60%
    15:00 +30°C° 0 mm 6 mps 759 mmHg 63%
    16:00 +29°C° 0 mm 5 mps 759 mmHg 66%
    17:00 +28°C° 0 mm 5 mps 759 mmHg 71%
    18:00 +26°C° 0 mm 5 mps 760 mmHg 76%
    19:00 +25°C° 0 mm 5 mps 760 mmHg 81%
    20:00 +25°C° 0 mm 5 mps 760 mmHg 81%
    21:00 +23°C° 0 mm 5 mps 761 mmHg 82%
    22:00 +23°C° 0 mm 5 mps 761 mmHg 83%
    23:00 +23°C° 0 mm 5 mps 761 mmHg 83%

    Tomorrow, 18 December, Monday

    Time Temperature Precipitation Wind Pressure Humidity
    00:00 +23°C° 0 mm 5 mps 760 mmHg 84%
    01:00 +23°C° 0 mm 5 mps 760 mmHg 84%
    02:00 +23°C° 0 mm 5 mps 760 mmHg 84%
    03:00 +23°C° 0 mm 5 mps 760 mmHg 84%
    04:00 +23°C° 0 mm 5 mps 759 mmHg 85%
    05:00 +23°C° 0 mm 5 mps 760 mmHg 84%
    06:00 +23°C° 0 mm 5 mps 760 mmHg 84%
    07:00 +23°C° 0 mm 5 mps 760 mmHg 83%
    08:00 +26°C° 0 mm 5 mps 761 mmHg 77%
    09:00 +28°C° 0 mm 5 mps 761 mmHg 71%
    10:00 +30°C° 0 mm 6 mps 761 mmHg 65%
    11:00 +30°C° 0 mm 5 mps 761 mmHg 62%
    12:00 +32°C° 0 mm 5 mps 760 mmHg 59%
    13:00 +33°C° 0 mm 5 mps 759 mmHg 57%
    14:00 +32°C° 0 mm 5 mps 759 mmHg 60%
    15:00 +30°C° 0 mm 5 mps 759 mmHg 63%
    16:00 +30°C° 0 mm 5 mps 759 mmHg 66%
    17:00 +28°C° 0 mm 4 mps 759 mmHg 72%
    18:00 +27°C° 0 mm 4 mps 760 mmHg 78%
    19:00 +25°C° 0 mm 4 mps 760 mmHg 84%
    20:00 +25°C° 0 mm 4 mps 760 mmHg 85%
    21:00 +23°C° 0 mm 4 mps 761 mmHg 86%
    22:00 +23°C° 0 mm 4 mps 761 mmHg 87%
    23:00 +23°C° 0 mm 4 mps 761 mmHg 87%

    Day after tomorrow, 19 December, Tuesday

    Time Temperature Precipitation Wind Pressure Humidity
    00:00 +23°C° 0 mm 4 mps 760 mmHg 87%
    01:00 +23°C° 0 mm 4 mps 760 mmHg 87%
    02:00 +23°C° 0 mm 4 mps 760 mmHg 87%
    03:00 +23°C° 0 mm 4 mps 760 mmHg 87%
    04:00 +23°C° 0 mm 4 mps 759 mmHg 88%
    05:00 +23°C° 0 mm 4 mps 760 mmHg 87%
    06:00 +23°C° 0 mm 4 mps 760 mmHg 86%
    07:00 +23°C° 0 mm 4 mps 761 mmHg 85%
    08:00 +26°C° 0 mm 4 mps 761 mmHg 80%
    09:00 +28°C° 0 mm 4 mps 761 mmHg 75%
    10:00 +29°C° 0 mm 5 mps 761 mmHg 69%
    11:00 +30°C° 0.1 mm 5 mps 761 mmHg 67%
    12:00 +32°C° 0.1 mm 5 mps 760 mmHg 65%
    13:00 +32°C° 0.1 mm 5 mps 759 mmHg 62%
    14:00 +32°C° 0.1 mm 5 mps 759 mmHg 64%
    15:00 +30°C° 0.1 mm 5 mps 759 mmHg 66%
    16:00 +30°C° 0.1 mm 5 mps 758 mmHg 67%
    17:00 +28°C° 0.1 mm 5 mps 759 mmHg 73%
    18:00 +27°C° 0.1 mm 5 mps 759 mmHg 79%
    19:00 +25°C° 0.1 mm 4 mps 760 mmHg 85%
    20:00 +25°C° 0.1 mm 4 mps 760 mmHg 87%
    21:00 +25°C° 0.1 mm 4 mps 760 mmHg 89%
    22:00 +25°C° 0.1 mm 4 mps 760 mmHg 90%
    23:00 +25°C° 0.1 mm 4 mps 760 mmHg 91%

    20 December, Wednesday

    Time Temperature Precipitation Wind Pressure Humidity
    00:00 +23°C° 0.1 mm 4 mps 759 mmHg 91%
    01:00 +23°C° 0.1 mm 4 mps 759 mmHg 91%
    02:00 +23°C° 0 mm 4 mps 759 mmHg 91%
    03:00 +23°C° 0 mm 4 mps 759 mmHg 91%
    04:00 +23°C° 0 mm 4 mps 758 mmHg 90%
    05:00 +23°C° 0 mm 4 mps 759 mmHg 89%
    06:00 +23°C° 0 mm 4 mps 759 mmHg 88%
    07:00 +23°C° 0 mm 4 mps 760 mmHg 86%
    08:00 +26°C° 0 mm 5 mps 760 mmHg 79%
    09:00 +27°C° 0 mm 5 mps 760 mmHg 71%
    10:00 +29°C° 0 mm 5 mps 760 mmHg 64%
    11:00 +30°C° 0 mm 5 mps 760 mmHg 62%
    12:00 +30°C° 0 mm 5 mps 759 mmHg 60%
    13:00 +32°C° 0 mm 5 mps 758 mmHg 58%
    14:00 +30°C° 0 mm 5 mps 758 mmHg 60%
    15:00 +30°C° 0 mm 5 mps 758 mmHg 63%
    16:00 +29°C° 0 mm 5 mps 757 mmHg 66%
    17:00 +28°C° 0 mm 5 mps 758 mmHg 71%
    18:00 +26°C° 0 mm 4 mps 758 mmHg 77%
    19:00 +25°C° 0 mm 4 mps 759 mmHg 83%
    20:00 +23°C° 0 mm 4 mps 759 mmHg 85%
    21:00 +23°C° 0 mm 4 mps 759 mmHg 86%
    22:00 +23°C° 0 mm 4 mps 759 mmHg 88%
    23:00 +22°C° 0 mm 4 mps 759 mmHg 88%

    21 December, Thursday

    Time Temperature Precipitation Wind Pressure Humidity
    00:00 +22°C° 0 mm 4 mps 758 mmHg 88%
    01:00 +22°C° 0 mm 4 mps 758 mmHg 88%
    02:00 +22°C° 0 mm 4 mps 758 mmHg 88%
    03:00 +22°C° 0 mm 4 mps 758 mmHg 88%
    04:00 +22°C° 0 mm 4 mps 758 mmHg 89%
    05:00 +22°C° 0.1 mm 4 mps 758 mmHg 88%
    06:00 +23°C° 0.1 mm 4 mps 759 mmHg 88%
    07:00 +23°C° 0.1 mm 4 mps 759 mmHg 87%
    08:00 +26°C° 0.1 mm 4 mps 759 mmHg 82%
    09:00 +27°C° 0.1 mm 4 mps 759 mmHg 77%
    10:00 +29°C° 0.1 mm 4 mps 760 mmHg 72%
    11:00 +29°C° 0.2 mm 4 mps 759 mmHg 70%
    12:00 +30°C° 0.2 mm 4 mps 758 mmHg 69%
    13:00 +30°C° 0.2 mm 4 mps 758 mmHg 67%
    14:00 +29°C° 0.2 mm 4 mps 758 mmHg 70%
    15:00 +29°C° 0.2 mm 4 mps 758 mmHg 74%
    16:00 +28°C° 0.2 mm 4 mps 757 mmHg 77%
    17:00 +27°C° 0.2 mm 4 mps 758 mmHg 82%
    18:00 +26°C° 0.2 mm 4 mps 759 mmHg 86%
    19:00 +25°C° 0.2 mm 4 mps 759 mmHg 90%
    20:00 +25°C° 0.1 mm 4 mps 759 mmHg 91%
    21:00 +25°C° 0.1 mm 4 mps 759 mmHg 91%
    22:00 +23°C° 0.1 mm 4 mps 760 mmHg 92%
    23:00 +23°C° 0.1 mm 4 mps 759 mmHg 92%

    22 December, Friday

    Time Temperature Precipitation Wind Pressure Humidity
    00:00 +23°C° 0.1 mm 4 mps 759 mmHg 92%
    01:00 +23°C° 0.1 mm 4 mps 759 mmHg 92%
    02:00 +23°C° 0.1 mm 4 mps 759 mmHg 92%
    03:00 +22°C° 0.1 mm 4 mps 758 mmHg 92%
    04:00 +22°C° 0.1 mm 4 mps 758 mmHg 92%
    05:00 +22°C° 0 mm 4 mps 759 mmHg 91%
    06:00 +23°C° 0 mm 4 mps 759 mmHg 91%
    07:00 +23°C° 0 mm 4 mps 760 mmHg 90%
    08:00 +26°C° 0.1 mm 4 mps 760 mmHg 83%
    09:00 +27°C° 0.1 mm 4 mps 760 mmHg 76%
    10:00 +29°C° 0.1 mm 5 mps 760 mmHg 70%
    11:00 +30°C° 0.2 mm 5 mps 760 mmHg 67%
    12:00 +30°C° 0.2 mm 5 mps 759 mmHg 65%
    13:00 +32°C° 0.2 mm 5 mps 759 mmHg 63%
    14:00 +30°C° 0.2 mm 5 mps 759 mmHg 67%
    15:00 +29°C° 0.2 mm 4 mps 758 mmHg 70%
    16:00 +28°C° 0.2 mm 4 mps 758 mmHg 74%
    17:00 +27°C° 0.1 mm 4 mps 759 mmHg 78%
    18:00 +26°C° 0.1 mm 4 mps 759 mmHg 83%
    19:00 +25°C° 0.1 mm 4 mps 760 mmHg 87%
    20:00 +25°C° 0.1 mm 4 mps 760 mmHg 88%
    21:00 +23°C° 0.1 mm 5 mps 760 mmHg 89%
    22:00 +23°C° 0.1 mm 5 mps 760 mmHg 89%
    23:00 +23°C° 0.1 mm 5 mps 760 mmHg 89%
    Show more